• Em Portugal
  • Lista de países
  • Para 7 dias
  • Temperatura da água
  • Mapas de satélite
  • Mapa do tempo
  • Widgets de tempo
  • user-avatar
    Iniciar Sessão

    Previsão horária em Slomiana

    Hoje, 23 Abril, Segunda-feira

    Tempo Temperatura Precipitação Vento Pressão Humidade
    00:00 +10°C° 0 mm 0 m/s 745 mmHg 65%
    01:00 +9°C° 0 mm 0 m/s 745 mmHg 65%
    02:00 +9°C° 0 mm 0 m/s 745 mmHg 66%
    03:00 +8°C° 0 mm 0 m/s 745 mmHg 68%
    04:00 +8°C° 0 mm 0 m/s 745 mmHg 69%
    05:00 +10°C° 0 mm 0 m/s 745 mmHg 64%
    06:00 +11°C° 0 mm 0 m/s 745 mmHg 60%
    07:00 +13°C° 0 mm 0 m/s 745 mmHg 54%
    08:00 +16°C° 0 mm 1 m/s 745 mmHg 49%
    09:00 +19°C° 0 mm 1 m/s 745 mmHg 45%
    10:00 +21°C° 0 mm 1 m/s 745 mmHg 40%
    11:00 +21°C° 0 mm 1 m/s 745 mmHg 38%
    12:00 +22°C° 0 mm 1 m/s 744 mmHg 36%
    13:00 +23°C° 0 mm 1 m/s 744 mmHg 35%
    14:00 +23°C° 0 mm 1 m/s 743 mmHg 36%
    15:00 +23°C° 0 mm 1 m/s 743 mmHg 37%
    16:00 +23°C° 0 mm 1 m/s 743 mmHg 38%
    17:00 +22°C° 0,1 mm 1 m/s 742 mmHg 44%
    18:00 +20°C° 0,1 mm 1 m/s 742 mmHg 50%
    19:00 +18°C° 0,1 mm 1 m/s 742 mmHg 57%
    20:00 +18°C° 0,3 mm 1 m/s 742 mmHg 61%
    21:00 +16°C° 0,3 mm 2 m/s 742 mmHg 66%
    22:00 +16°C° 0,3 mm 2 m/s 742 mmHg 71%
    23:00 +16°C° 0,2 mm 2 m/s 742 mmHg 76%

    Amanhã, 24 Abril, Terça-feira

    Tempo Temperatura Precipitação Vento Pressão Humidade
    00:00 +15°C° 0,2 mm 2 m/s 742 mmHg 82%
    01:00 +14°C° 0,2 mm 3 m/s 743 mmHg 87%
    02:00 +14°C° 0 mm 3 m/s 743 mmHg 90%
    03:00 +13°C° 0 mm 3 m/s 743 mmHg 92%
    04:00 +13°C° 0 mm 4 m/s 743 mmHg 95%
    05:00 +13°C° 0 mm 4 m/s 744 mmHg 91%
    06:00 +13°C° 0 mm 4 m/s 744 mmHg 86%
    07:00 +14°C° 0 mm 4 m/s 744 mmHg 82%
    08:00 +15°C° 0 mm 4 m/s 745 mmHg 73%
    09:00 +17°C° 0 mm 4 m/s 745 mmHg 65%
    10:00 +19°C° 0 mm 4 m/s 745 mmHg 56%
    11:00 +19°C° 0 mm 4 m/s 745 mmHg 54%
    12:00 +19°C° 0 mm 4 m/s 745 mmHg 52%
    13:00 +20°C° 0 mm 4 m/s 745 mmHg 50%
    14:00 +20°C° 0 mm 4 m/s 745 mmHg 49%
    15:00 +20°C° 0 mm 4 m/s 744 mmHg 48%
    16:00 +20°C° 0 mm 4 m/s 744 mmHg 48%
    17:00 +19°C° 0 mm 3 m/s 744 mmHg 52%
    18:00 +17°C° 0 mm 2 m/s 744 mmHg 57%
    19:00 +15°C° 0 mm 1 m/s 744 mmHg 62%
    20:00 +15°C° 0 mm 2 m/s 744 mmHg 63%
    21:00 +15°C° 0 mm 2 m/s 744 mmHg 63%
    22:00 +15°C° 0 mm 2 m/s 744 mmHg 64%
    23:00 +15°C° 0 mm 2 m/s 744 mmHg 66%

    Depois de amanhã, 25 Abril, Quarta-feira

    Tempo Temperatura Precipitação Vento Pressão Humidade
    00:00 +14°C° 0 mm 2 m/s 744 mmHg 67%
    01:00 +13°C° 0 mm 3 m/s 744 mmHg 69%
    02:00 +13°C° 0 mm 3 m/s 744 mmHg 74%
    03:00 +13°C° 0 mm 2 m/s 744 mmHg 79%
    04:00 +12°C° 0 mm 2 m/s 744 mmHg 85%
    05:00 +13°C° 0 mm 2 m/s 744 mmHg 80%
    06:00 +14°C° 0 mm 2 m/s 744 mmHg 76%
    07:00 +15°C° 0 mm 2 m/s 745 mmHg 72%
    08:00 +17°C° 0 mm 3 m/s 744 mmHg 65%
    09:00 +18°C° 0 mm 3 m/s 744 mmHg 59%
    10:00 +20°C° 0 mm 4 m/s 744 mmHg 53%
    11:00 +21°C° 0 mm 4 m/s 743 mmHg 50%
    12:00 +22°C° 0 mm 5 m/s 743 mmHg 47%
    13:00 +23°C° 0 mm 6 m/s 742 mmHg 44%
    14:00 +24°C° 0 mm 6 m/s 742 mmHg 44%
    15:00 +24°C° 0 mm 6 m/s 741 mmHg 44%
    16:00 +24°C° 0 mm 6 m/s 741 mmHg 43%
    17:00 +22°C° 0 mm 5 m/s 741 mmHg 50%
    18:00 +20°C° 0 mm 4 m/s 740 mmHg 57%
    19:00 +19°C° 0 mm 3 m/s 740 mmHg 64%
    20:00 +18°C° 0,2 mm 3 m/s 740 mmHg 68%
    21:00 +17°C° 0,2 mm 4 m/s 741 mmHg 73%
    22:00 +17°C° 0,2 mm 4 m/s 741 mmHg 77%
    23:00 +15°C° 0 mm 4 m/s 741 mmHg 79%

    26 Abril, Quinta-feira

    Tempo Temperatura Precipitação Vento Pressão Humidade
    00:00 +15°C° 0 mm 4 m/s 741 mmHg 82%
    01:00 +14°C° 0 mm 4 m/s 741 mmHg 84%
    02:00 +14°C° 0 mm 4 m/s 741 mmHg 86%
    03:00 +13°C° 0 mm 3 m/s 741 mmHg 88%
    04:00 +12°C° 0 mm 3 m/s 741 mmHg 90%
    05:00 +13°C° 0 mm 4 m/s 742 mmHg 84%
    06:00 +14°C° 0 mm 5 m/s 742 mmHg 79%
    07:00 +15°C° 0 mm 5 m/s 742 mmHg 73%
    08:00 +16°C° 0 mm 6 m/s 743 mmHg 67%
    09:00 +17°C° 0 mm 6 m/s 743 mmHg 61%
    10:00 +19°C° 0 mm 6 m/s 744 mmHg 54%
    11:00 +20°C° 0 mm 6 m/s 743 mmHg 52%
    12:00 +20°C° 0 mm 5 m/s 743 mmHg 49%
    13:00 +20°C° 0 mm 5 m/s 743 mmHg 46%
    14:00 +20°C° 0 mm 5 m/s 743 mmHg 48%
    15:00 +20°C° 0 mm 5 m/s 743 mmHg 49%
    16:00 +19°C° 0 mm 4 m/s 743 mmHg 51%
    17:00 +18°C° 0,1 mm 4 m/s 743 mmHg 56%
    18:00 +17°C° 0,1 mm 3 m/s 744 mmHg 61%
    19:00 +14°C° 0,1 mm 3 m/s 744 mmHg 66%
    20:00 +14°C° 0 mm 3 m/s 744 mmHg 67%
    21:00 +13°C° 0 mm 3 m/s 745 mmHg 68%
    22:00 +13°C° 0 mm 3 m/s 745 mmHg 69%
    23:00 +12°C° 0 mm 3 m/s 746 mmHg 70%

    27 Abril, Sexta-feira

    Tempo Temperatura Precipitação Vento Pressão Humidade
    00:00 +13°C° 0 mm 2 m/s 746 mmHg 71%
    01:00 +12°C° 0 mm 2 m/s 746 mmHg 72%
    02:00 +10°C° 0 mm 2 m/s 746 mmHg 73%
    03:00 +10°C° 0 mm 2 m/s 746 mmHg 74%
    04:00 +9°C° 0 mm 2 m/s 747 mmHg 75%
    05:00 +10°C° 0 mm 2 m/s 747 mmHg 71%
    06:00 +10°C° 0 mm 3 m/s 747 mmHg 68%
    07:00 +11°C° 0 mm 3 m/s 748 mmHg 65%
    08:00 +12°C° 0 mm 3 m/s 748 mmHg 58%
    09:00 +13°C° 0 mm 3 m/s 748 mmHg 51%
    10:00 +14°C° 0 mm 3 m/s 748 mmHg 44%
    11:00 +16°C° 0 mm 3 m/s 748 mmHg 42%
    12:00 +17°C° 0 mm 3 m/s 748 mmHg 39%
    13:00 +17°C° 0 mm 3 m/s 748 mmHg 37%
    14:00 +17°C° 0 mm 2 m/s 748 mmHg 37%
    15:00 +17°C° 0 mm 2 m/s 747 mmHg 36%
    16:00 +17°C° 0 mm 2 m/s 747 mmHg 36%
    17:00 +16°C° 0 mm 2 m/s 747 mmHg 41%
    18:00 +14°C° 0 mm 2 m/s 747 mmHg 46%
    19:00 +12°C° 0 mm 1 m/s 748 mmHg 50%
    20:00 +12°C° 0 mm 2 m/s 748 mmHg 53%
    21:00 +10°C° 0 mm 2 m/s 748 mmHg 56%
    22:00 +9°C° 0 mm 2 m/s 748 mmHg 59%
    23:00 +9°C° 0 mm 3 m/s 748 mmHg 61%

    28 Abril, Sábado

    Tempo Temperatura Precipitação Vento Pressão Humidade
    00:00 +9°C° 0 mm 3 m/s 748 mmHg 63%
    01:00 +8°C° 0 mm 3 m/s 748 mmHg 65%
    02:00 +8°C° 0 mm 3 m/s 748 mmHg 66%
    03:00 +8°C° 0 mm 3 m/s 747 mmHg 68%
    04:00 +7°C° 0 mm 4 m/s 747 mmHg 69%
    05:00 +10°C° 0 mm 4 m/s 747 mmHg 67%
    06:00 +10°C° 0 mm 5 m/s 747 mmHg 66%
    07:00 +12°C° 0 mm 5 m/s 747 mmHg 64%
    08:00 +14°C° 0 mm 5 m/s 746 mmHg 61%
    09:00 +16°C° 0 mm 5 m/s 746 mmHg 58%
    10:00 +19°C° 0 mm 5 m/s 746 mmHg 55%
    11:00 +20°C° 0 mm 5 m/s 745 mmHg 54%
    12:00 +21°C° 0 mm 4 m/s 745 mmHg 54%
    13:00 +23°C° 0 mm 4 m/s 744 mmHg 53%
    14:00 +23°C° 0,1 mm 4 m/s 744 mmHg 53%
    15:00 +23°C° 0,1 mm 4 m/s 744 mmHg 54%
    16:00 +25°C° 0,1 mm 3 m/s 743 mmHg 55%
    17:00 +22°C° 0,1 mm 3 m/s 743 mmHg 62%
    18:00 +21°C° 0,1 mm 3 m/s 743 mmHg 70%
    19:00 +19°C° 0,1 mm 3 m/s 743 mmHg 78%
    20:00 +18°C° 0,1 mm 3 m/s 743 mmHg 81%
    21:00 +18°C° 0,1 mm 3 m/s 743 mmHg 85%
    22:00 +17°C° 0,1 mm 3 m/s 743 mmHg 88%
    23:00 +17°C° 0 mm 3 m/s 743 mmHg 89%
    Mostrar mais